[[{"header":{"parameterUnit":"m.s-1","parameterCategory":1,"la1":30.2991,"la2":30.254,"lo1":-89.0895,"lo2":-89.0444,"dy":0.0017,"dx":0.0017,"nx":28,"ny":28,"refTime":"2023-09-10T09:00:00:Z","depth":0,"parameterNumber":2,"parameterNumberName":"U-component_of_WINDS"},"data":[0,0,0,0,0,0,0,0,0,0,0,0,0,0,0,0,0,0,0,0,0,0,0,0,0,0,0,0,0,0,0,0,0,0,0,0,0,0,0,0,0,0,0,0,0,0,0,0,0,0,0,0,0,0,0,0,0,0,-2.009,-2.009,0,-2.0077,-2.0077,-2.0077,-2.0041,-2.004,-2.0039,-2.0038,-2.0025,-2.0026,-2.0026,0,0,0,0,0,0,0,0,0,0,0,0,0,-2.0085,-2.0085,-2.009,-2.009,-2.009,-2.0077,-2.0077,-2.0077,-2.0041,-2.004,-2.0039,-2.0038,-2.0025,-2.0026,-2.0026,0,0,0,0,0,0,0,0,0,0,0,0,0,-2.0081,-2.0085,-2.009,-2.007,-2.0068,-2.0077,-2.0077,-2.0077,-2.0041,-2.004,-2.0039,-2.0037,-2.0025,-2.0026,-2.0026,-2.0054,0,0,-2.0028,-2.0028,0,0,0,0,0,0,0,0,-2.0082,-2.0082,-2.0073,-2.0072,-2.0069,-2.0059,-2.0071,-2.0069,-2.0041,-2.0051,-2.0038,-2.0037,-2.0038,-2.0037,-2.0037,-2.0053,-2.0053,-2.0028,-2.0029,-2.0029,-2.0029,0,0,0,0,0,0,0,-2.0082,-2.0082,-2.0085,-2.0073,-2.0071,-2.0063,-2.0061,-2.007,-2.0051,-2.005,-2.0048,-2.0047,-2.0036,-2.0037,-2.0037,-2.0052,-2.0028,-2.0029,-2.0029,-2.0029,-2.0093,-2.0094,0,0,0,0,0,0,-2.0085,-2.0082,-2.0085,-2.0085,-2.0073,-2.0064,-2.0062,-2.0064,-2.0051,-2.0048,-2.0048,-2.0045,-2.0036,-2.0036,-2.0036,-2.0069,-2.0029,-2.0029,-2.003,-2.0091,-2.0093,-2.0094,0,0,0,0,0,0,-2.0085,-2.0085,-2.0086,-2.0083,-2.0082,-2.0065,-2.0068,-2.0064,-2.0064,-2.0049,-2.0046,-2.0052,-2.0036,-2.0035,-2.005,-2.0068,-2.003,-2.003,-2.009,-2.0092,-2.0094,-2.0133,0,0,0,0,0,0,-2.0085,-2.0086,-2.0095,-2.0083,-2.0082,-2.0099,-2.0069,-2.0065,-2.0066,-2.0062,-2.0052,-2.0049,-2.0035,-2.0049,-2.0051,-2.0068,-2.0031,-2.0088,-2.0091,-2.0093,-2.013,-2.0136,-2.0141,0,0,0,0,0,-2.0085,-2.0106,-2.0096,-2.0096,-2.0094,-2.01,-2.01,-2.0083,-2.0067,-2.0077,-2.0068,-2.0049,-2.0066,-2.0051,-2.0052,-2.007,-2.0087,-2.009,-2.0093,-2.0127,-2.0135,-2.0141,0,0,0,0,0,0,-2.012,-2.0104,-2.0092,-2.011,-2.0107,-2.0094,-2.0106,-2.0091,-2.0092,-2.0089,-2.0068,-2.0066,-2.0084,-2.0078,-2.0062,-2.0097,-2.0073,-2.0077,-2.01,-2.0106,-2.0112,-2.0113,-2.0031,0,0,0,0,0,-2.013,-2.0136,-2.0122,-2.014,-2.0139,-2.0123,-2.0125,-2.0113,-2.0108,-2.0107,-2.0098,-2.0095,-2.01,-2.0103,-2.0106,-2.013,-2.0128,-2.0143,-2.0148,-2.0153,-2.0156,-2.017,-2.0176,-2.0104,-2.0104,-2.0104,0,0,-2.015,-2.0143,-2.0147,-2.0147,-2.0142,-2.015,-2.0122,-2.013,-2.0136,-2.0108,-2.0121,-2.0116,-2.0111,-2.0131,-2.0139,-2.0127,-2.0176,-2.0157,-2.0161,-2.0161,-2.0173,-2.018,-2.0186,-2.0106,-2.0106,-2.0105,0,0,-2.0191,-2.0186,-2.02,-2.0197,-2.0192,-2.0182,-2.0186,-2.0176,-2.0171,-2.0184,-2.0164,-2.0171,-2.0179,-2.0177,-2.0177,-2.0221,-2.0204,-2.0223,-2.0252,-2.0265,-2.0271,-2.0276,-2.0293,-2.0299,-2.0226,-2.0226,-2.0226,0,-2.0217,-2.0227,-2.021,-2.022,-2.0221,-2.0197,-2.0213,-2.0211,-2.0207,-2.0208,-2.0195,-2.0206,-2.0201,-2.0221,-2.0232,-2.0233,-2.0237,-2.0223,-2.0272,-2.0277,-2.0281,-2.0296,-2.0303,-2.0228,-2.0228,-2.0228,-2.0228,0,-2.026,-2.0268,-2.028,-2.0278,-2.028,-2.0293,-2.0279,-2.0284,-2.0272,-2.0264,-2.0279,-2.0273,-2.0275,-2.028,-2.0268,-2.0299,-2.0291,-2.0275,-2.0251,-2.029,-2.0305,-2.031,-2.0231,-2.0231,-2.023,-2.0229,0,0,-2.032,-2.031,-2.0315,-2.0314,-2.0308,-2.0314,-2.0327,-2.033,-2.0335,-2.0334,-2.0345,-2.0354,-2.034,-2.034,-2.0329,-2.0341,-2.0378,-2.0323,-2.0323,-2.0334,-2.0413,-2.0425,-2.0432,-2.0367,-2.0368,-2.0369,-2.0413,0,-2.0359,-2.038,-2.0366,-2.039,-2.0398,-2.0376,-2.0388,-2.0386,-2.038,-2.0386,-2.0379,-2.0386,-2.0366,-2.0367,-2.0378,-2.0371,-2.0393,-2.0367,-2.0378,-2.0379,-2.0379,-2.0439,-2.0451,-2.0493,-2.0419,-2.042,-2.042,0,-2.0407,-2.0409,-2.0433,-2.0428,-2.043,-2.0441,-2.0444,-2.045,-2.0448,-2.0443,-2.0445,-2.0431,-2.0445,-2.0422,-2.0441,-2.0424,-2.0428,-2.0426,-2.0427,-2.0427,-2.0401,-2.044,-2.0505,-2.0512,-2.0429,-2.0428,-2.0427,0,-2.0449,-2.0458,-2.0474,-2.0474,-2.0468,-2.0476,-2.0474,-2.0471,-2.0475,-2.0478,-2.048,-2.0485,-2.0487,-2.0491,-2.048,-2.0464,-2.0501,-2.0477,-2.0498,-2.0498,-2.0506,-2.0505,-2.0572,-2.0509,-2.0509,-2.0509,-2.0509,0,-2.0494,-2.051,-2.0493,-2.0503,-2.0521,-2.0506,-2.0525,-2.052,-2.0519,-2.0528,-2.0511,-2.052,-2.0504,-2.0513,-2.0504,-2.0522,-2.0523,-2.052,-2.0517,-2.0521,-2.0522,-2.0523,-2.052,-2.051,-2.051,-2.051,-2.0509,0,-2.0543,-2.0533,-2.0549,-2.0543,-2.0542,-2.0555,-2.055,-2.056,-2.0553,-2.0566,-2.0568,-2.0558,-2.0567,-2.0556,-2.0564,-2.0559,-2.0584,-2.0577,-2.0584,-2.0582,-2.0603,-2.0602,-2.0673,-2.0682,-2.0613,-2.0614,-2.0615,0,-2.0572,-2.0584,-2.0579,-2.0585,-2.0584,-2.0592,-2.0596,-2.0583,-2.0588,-2.0589,-2.0599,-2.0607,-2.0612,-2.0629,-2.0622,-2.0629,-2.0622,-2.0647,-2.0623,-2.0628,-2.0623,-2.0623,-2.0624,-2.0652,-2.0652,-2.0653,-2.0654,0,-2.0625,-2.062,-2.0626,-2.0631,-2.0637,-2.064,-2.0642,-2.0648,-2.0634,-2.0641,-2.065,-2.0655,-2.0664,-2.0673,-2.0679,-2.0677,-2.0664,-2.0662,-2.0667,-2.0671,-2.0675,-2.0674,-2.0597,-2.066,-2.0659,-2.0659,-2.0658,-2.0658,-2.0665,-2.0676,-2.0674,-2.0683,-2.0683,-2.0686,-2.0695,-2.0691,-2.0698,-2.0705,-2.0697,-2.071,-2.071,-2.0716,-2.0717,-2.0727,-2.0717,-2.0724,-2.0726,-2.0728,-2.0732,-2.0674,-2.0728,-2.0728,-2.0728,-2.0728,-2.0728,0,-2.0718,-2.0716,-2.0724,-2.0728,-2.0735,-2.0722,-2.0725,-2.0732,-2.0743,-2.0744,-2.0751,-2.0763,-2.0772,-2.0768,-2.0776,-2.0785,-2.078,-2.0788,-2.0787,-2.0787,-2.074,-2.0735,-2.0793,-2.0793,-2.0793,-2.0793,-2.0793,-2.0793,-2.0745,-2.0763,-2.0758,-2.0777,-2.0775,-2.0787,-2.079,-2.0793,-2.0795,-2.0809,-2.0817,-2.0814,-2.0814,-2.0823,-2.0831,-2.083,-2.0834,-2.0844,-2.0841,-2.0797,-2.079,-2.0784,-2.0779,-2.0845,-2.0845,-2.0887,-2.0888,-2.0888]},{"header":{"parameterUnit":"m.s-1","parameterCategory":1,"la1":30.2991,"la2":30.254,"lo1":-89.0895,"lo2":-89.0444,"dy":0.0017,"dx":0.0017,"nx":28,"ny":28,"refTime":"2023-09-10T09:00:00:Z","depth":0,"parameterNumber":3,"parameterNumberName":"V-component_of_WINDS"},"data":[0,0,0,0,0,0,0,0,0,0,0,0,0,0,0,0,0,0,0,0,0,0,0,0,0,0,0,0,0,0,0,0,0,0,0,0,0,0,0,0,0,0,0,0,0,0,0,0,0,0,0,0,0,0,0,0,0,0,3.6938,3.6938,0,3.6957,3.6957,3.6957,3.7006,3.7007,3.7008,3.7009,3.7024,3.7023,3.7022,0,0,0,0,0,0,0,0,0,0,0,0,0,3.694,3.694,3.6938,3.6938,3.6938,3.6957,3.6957,3.6957,3.7005,3.7007,3.7008,3.7009,3.7024,3.7023,3.7022,0,0,0,0,0,0,0,0,0,0,0,0,0,3.6947,3.694,3.6938,3.6965,3.6967,3.6957,3.6957,3.6957,3.7005,3.7007,3.7008,3.701,3.7024,3.7023,3.7022,3.6986,0,0,3.702,3.7019,0,0,0,0,0,0,0,0,3.6947,3.6947,3.6961,3.6963,3.6966,3.6981,3.6963,3.6967,3.7005,3.6991,3.7009,3.7011,3.7008,3.7008,3.7008,3.6987,3.6987,3.702,3.7019,3.7019,3.7018,0,0,0,0,0,0,0,3.6946,3.6946,3.6945,3.6961,3.6964,3.6975,3.6977,3.6964,3.699,3.6992,3.6996,3.6997,3.7009,3.7009,3.7009,3.6987,3.702,3.7019,3.7018,3.7018,3.6938,3.6936,0,0,0,0,0,0,3.6942,3.6946,3.6945,3.6946,3.696,3.6973,3.6977,3.6974,3.699,3.6994,3.6996,3.7,3.701,3.701,3.701,3.6969,3.7019,3.7018,3.7017,3.6939,3.6937,3.6935,0,0,0,0,0,0,3.6942,3.6942,3.6944,3.6947,3.6948,3.6972,3.6969,3.6974,3.6973,3.6994,3.6998,3.6991,3.7011,3.7011,3.6992,3.697,3.7018,3.7017,3.6941,3.6939,3.6936,3.6886,0,0,0,0,0,0,3.6942,3.6941,3.6928,3.6946,3.6948,3.6927,3.6967,3.6973,3.6972,3.6977,3.699,3.6994,3.7012,3.6993,3.6991,3.6969,3.7016,3.6943,3.694,3.6937,3.6889,3.6882,3.6875,0,0,0,0,0,3.6942,3.6912,3.6927,3.6927,3.6932,3.6925,3.6926,3.6949,3.697,3.6957,3.697,3.6993,3.6973,3.6991,3.6989,3.6967,3.6945,3.6941,3.6937,3.6893,3.6883,3.6876,0,0,0,0,0,0,3.6889,3.6915,3.6932,3.6908,3.6914,3.6934,3.6917,3.6939,3.6938,3.6942,3.697,3.6972,3.6949,3.6956,3.6976,3.6933,3.6962,3.6958,3.6929,3.692,3.6913,3.6912,3.7015,0,0,0,0,0,3.6875,3.6869,3.6891,3.6867,3.687,3.6893,3.6891,3.6909,3.6916,3.6918,3.693,3.6935,3.693,3.6925,3.6922,3.6891,3.6894,3.6875,3.6868,3.6862,3.6858,3.6842,3.6834,3.6923,3.6923,3.6924,0,0,3.6845,3.6858,3.6852,3.6857,3.6864,3.6856,3.6895,3.6884,3.6878,3.6916,3.69,3.6908,3.6916,3.6891,3.688,3.6896,3.6834,3.6857,3.6852,3.6851,3.6838,3.6829,3.6822,3.6921,3.6921,3.6922,0,0,3.6787,3.6796,3.6778,3.6785,3.6796,3.6812,3.6807,3.6824,3.6832,3.6816,3.6844,3.6837,3.6827,3.6832,3.6833,3.6777,3.6798,3.6775,3.6738,3.6723,3.6716,3.671,3.669,3.6683,3.6771,3.6771,3.6771,0,3.6747,3.6738,3.6765,3.6754,3.6755,3.6791,3.6772,3.6777,3.6785,3.6784,3.6802,3.6792,3.6799,3.6776,3.6763,3.6762,3.6758,3.6773,3.6715,3.6709,3.6704,3.6685,3.6678,3.6768,3.6768,3.6769,3.6769,0,3.6689,3.6682,3.6666,3.6675,3.6674,3.6659,3.6683,3.6679,3.6697,3.6711,3.6694,3.6705,3.6704,3.67,3.6717,3.668,3.6689,3.671,3.674,3.6692,3.6675,3.6668,3.6764,3.6765,3.6766,3.6767,0,0,3.6597,3.6623,3.6617,3.6622,3.6637,3.6632,3.6618,3.6619,3.6615,3.662,3.6608,3.66,3.6621,3.6622,3.6639,3.6626,3.6582,3.6649,3.6649,3.6636,3.6542,3.6525,3.6517,3.6596,3.6595,3.6594,3.6541,0,3.6542,3.6521,3.6546,3.652,3.6513,3.6548,3.6536,3.6544,3.6556,3.6552,3.6566,3.656,3.6587,3.6588,3.6576,3.6589,3.6563,3.6594,3.6585,3.6584,3.6582,3.6508,3.6491,3.644,3.6535,3.6533,3.6533,0,3.6475,3.6478,3.6452,3.647,3.6468,3.6457,3.6461,3.6457,3.6466,3.6476,3.6478,3.65,3.6487,3.6517,3.6499,3.652,3.6518,3.6524,3.6522,3.6522,3.6555,3.6505,3.6425,3.6417,3.6523,3.6523,3.6524,0,3.641,3.6408,3.6393,3.6396,3.6417,3.6408,3.6416,3.6427,3.6427,3.643,3.6429,3.643,3.643,3.6429,3.6451,3.6471,3.643,3.6462,3.6438,3.6437,3.6427,3.6427,3.6344,3.6426,3.6426,3.6426,3.6426,0,3.6346,3.6328,3.6364,3.6354,3.6335,3.6364,3.6344,3.6356,3.6366,3.6358,3.6387,3.6379,3.6408,3.6403,3.6419,3.6402,3.6402,3.6409,3.6414,3.6406,3.6405,3.6405,3.6409,3.6424,3.6425,3.6425,3.6425,0,3.627,3.6294,3.6279,3.6301,3.6306,3.6291,3.6309,3.63,3.6316,3.6306,3.6305,3.6328,3.6324,3.6345,3.6344,3.6355,3.6329,3.634,3.6327,3.633,3.6304,3.6306,3.6218,3.6208,3.6296,3.6295,3.6294,0,3.6228,3.6215,3.6236,3.6234,3.6241,3.6237,3.6238,3.6265,3.6264,3.6275,3.6264,3.6263,3.6263,3.6254,3.627,3.6269,3.628,3.6249,3.628,3.6273,3.628,3.628,3.6279,3.6242,3.6241,3.624,3.624,0,3.615,3.6162,3.6162,3.6166,3.6166,3.6171,3.6177,3.6173,3.6203,3.62,3.6197,3.6197,3.6197,3.6195,3.6198,3.6205,3.6227,3.623,3.6225,3.6217,3.621,3.6213,3.6309,3.6232,3.6233,3.6233,3.6234,3.6234,3.6089,3.608,3.6094,3.6093,3.6101,3.6106,3.61,3.6115,3.6114,3.6117,3.6133,3.6127,3.6137,3.6144,3.6149,3.6144,3.6158,3.615,3.6148,3.6145,3.6141,3.6211,3.6144,3.6144,3.6145,3.6145,3.6145,0,3.6013,3.6024,3.6023,3.6032,3.6031,3.6054,3.6062,3.606,3.6054,3.6063,3.6063,3.6059,3.6058,3.6075,3.6075,3.6068,3.6078,3.6067,3.6067,3.6069,3.6128,3.6133,3.6059,3.6059,3.6059,3.6059,3.6059,3.6059,3.5973,3.5959,3.5974,3.5964,3.5975,3.5971,3.5973,3.5978,3.5985,3.5981,3.598,3.5992,3.6003,3.6005,3.6004,3.6009,3.6008,3.5993,3.6001,3.6056,3.6064,3.6072,3.6077,3.5993,3.5993,3.5943,3.5943,3.5942]}]]